Theta_e
318 319 319 320 321 321 320 319 319 320 319 320 320 320 320 319 316 315 314 315 318 318 321 323 324 319 318 317 317 317 316 315 314 313 313 313 313 313 313 313 313 314 314
319 319 320 321 321 321 320 320 320 319 319 320 320 322 322 319 316 314 313 311 316 317 319 321 317 317 317 316 316 316 315 314 312 312 312 312 312 312 312 314 314 314 314
320 321 321 321 322 322 322 321 320 318 319 322 321 321 321 318 315 314 311 306 308 314 316 314 313 313 314 315 315 314 313 312 311 311 310 310 311 312 313 312 312 313 312
322 321 321 321 322 322 321 320 318 317 317 317 319 316 319 314 310 305 302 301 302 305 310 310 308 309 311 312 313 313 312 311 310 309 310 312 311 311 312 311 311 311 311
323 321 321 321 322 321 319 319 316 316 315 315 317 314 317 310 307 302 298 299 301 302 303 305 303 304 306 309 310 311 311 310 309 308 310 309 310 310 310 310 310 310 310
323 321 321 321 321 320 319 318 316 316 316 316 316 318 314 309 304 298 296 298 298 299 298 296 293 297 301 304 307 309 309 309 308 308 308 309 309 309 309 309 309 309 308
323 322 321 320 320 319 319 318 316 314 315 319 312 314 313 308 305 297 295 295 296 297 294 293 292 291 292 299 303 306 308 308 307 307 308 307 308 307 308 308 307 307 307
324 323 322 320 320 318 317 317 316 315 316 317 310 311 308 310 302 297 293 295 294 296 293 292 290 291 290 290 295 301 303 305 306 306 306 306 307 307 307 307 306 306 306
325 324 322 321 320 319 318 317 316 316 316 317 315 309 302 301 302 298 291 292 292 294 291 290 290 290 289 288 291 294 299 301 304 304 304 304 305 305 305 305 305 305 304
325 324 323 323 321 321 319 319 319 317 318 314 313 312 308 302 297 293 292 289 291 293 291 289 288 289 289 288 291 294 297 299 299 300 301 302 303 303 304 304 303 303 303
326 325 324 323 322 321 321 320 319 319 320 316 313 309 305 300 298 293 289 287 289 291 290 288 287 287 288 288 288 292 296 298 297 298 298 299 300 301 302 302 302 302 301
326 325 325 323 323 322 321 320 320 321 320 317 314 310 304 299 296 290 288 286 285 288 289 288 287 287 287 287 291 292 294 296 297 297 297 297 297 298 299 300 300 300 299
325 325 324 323 322 322 321 321 320 320 318 316 313 310 304 298 296 292 288 286 285 288 288 287 287 287 288 287 289 290 292 294 296 296 295 296 296 296 296 297 297 297 297
326 327 325 325 323 322 321 320 320 319 315 312 309 302 299 295 292 291 289 287 284 285 287 287 287 287 287 287 290 289 289 292 294 295 295 294 294 294 295 295 295 295 295
326 326 324 324 323 321 320 318 318 314 313 308 304 298 295 292 290 290 290 289 287 283 285 285 284 287 287 287 288 286 286 290 291 292 292 292 292 293 293 294 293 293 293
325 323 322 322 322 318 314 312 309 305 304 300 298 294 292 291 289 289 288 288 288 286 284 286 285 286 287 288 289 286 286 289 289 289 289 290 290 291 291 292 292 292 292
323 321 321 320 317 314 311 311 308 303 302 296 293 293 291 290 288 287 287 287 286 286 284 284 286 286 286 286 286 285 285 284 284 288 288 288 289 289 290 290 290 290 289
323 323 320 317 314 311 309 308 304 302 300 295 292 290 290 289 287 287 287 286 286 286 286 283 284 284 284 285 286 283 284 285 283 287 288 288 288 288 288 288 288 288 288
323 320 316 314 310 308 306 306 304 300 298 296 293 291 289 288 286 286 286 286 286 286 285 283 283 284 284 284 284 282 281 281 284 287 288 288 287 287 288 287 287 287 286
312 312 313 312 309 306 305 304 302 298 296 296 293 290 289 288 287 286 285 285 285 283 283 282 282 282 283 283 282 281 277 278 279 283 286 285 286 286 286 286 286 286 286
307 306 304 303 302 302 302 300 298 296 294 291 290 289 288 287 288 288 286 284 285 282 282 282 282 281 282 282 281 280 278 279 279 279 278 278 277 279 278 284 283 285 286
298 298 297 297 298 300 297 296 295 294 290 289 288 286 286 285 288 289 290 289 287 284 283 282 282 282 283 282 281 279 277 277 276 280 281 281 278 276 276 276 284 284 284
292 292 292 291 291 292 294 294 292 291 289 289 287 286 284 285 286 287 290 289 289 289 288 284 283 283 282 282 279 274 277 278 279 280 280 278 275 273 274 282 286 284 283
290 289 289 289 289 288 293 293 290 287 287 287 286 286 285 284 285 285 285 284 284 284 285 285 284 284 283 283 281 280 279 278 280 280 281 276 278 274 279 275 286 285 282
286 286 285 286 286 286 292 292 289 286 285 285 285 285 285 284 286 287 284 283 282 282 287 287 287 287 287 287 285 282 275 274 274 277 280 279 278 275 275 273 277 285 282
285 284 284 285 285 286 291 291 288 285 285 284 284 284 284 284 286 287 283 282 280 281 282 281 282 285 287 286 288 285 282 276 275 275 278 279 277 276 271 273 275 276 276
Wind_Speed
5 4 4 4 4 4 3 3 2 1 1 2 1 2 4 6 6 3 3 11 13 14 15 15 20 19 19 19 19 19 20 21 21 21 21 22 22 23 23 24 24 24 24
4 4 4 4 3 3 3 4 3 3 2 2 1 2 4 5 7 6 4 5 14 14 15 19 18 18 19 19 19 20 20 20 20 21 21 21 22 22 22 22 24 25 25
6 6 4 4 4 3 4 2 0 1 2 3 3 4 4 6 6 7 5 4 6 13 16 18 18 18 19 19 19 19 19 20 20 20 20 21 21 21 21 25 25 25 25
6 5 4 4 4 4 3 3 2 1 1 0 2 3 4 5 7 8 5 4 4 4 11 16 17 18 19 19 18 19 19 19 19 20 19 19 21 20 22 23 25 26 26
7 6 5 5 5 4 3 3 1 2 2 1 1 3 4 5 6 6 6 7 6 5 5 15 17 17 18 18 18 19 19 19 19 18 18 21 21 21 23 24 26 27 26
7 5 4 5 5 4 4 3 3 2 3 3 3 5 4 4 5 5 6 6 6 6 5 6 4 7 17 16 16 17 17 18 17 17 18 19 20 21 23 24 25 27 28
8 7 5 6 5 5 6 6 4 5 3 2 4 3 3 3 6 4 4 5 6 5 6 5 5 4 5 14 15 16 17 16 16 16 18 18 22 22 23 25 26 26 27
10 9 8 7 7 5 6 6 5 3 3 4 4 3 3 2 3 2 3 5 6 5 6 6 6 6 4 3 8 15 15 15 15 17 17 19 21 23 23 25 26 27 28
11 10 9 7 7 6 6 6 6 6 4 2 4 5 2 4 3 1 0 4 6 4 4 5 5 6 5 4 6 8 13 14 15 16 18 20 19 21 23 24 25 26 26
12 11 10 10 9 7 6 8 6 5 4 5 2 2 3 5 4 2 1 1 3 6 6 4 5 5 5 3 6 10 11 12 13 14 16 18 20 21 23 23 24 23 25
12 13 12 11 9 7 8 7 6 8 6 4 3 3 2 1 2 4 4 3 2 1 4 5 4 4 4 3 3 6 9 9 11 13 15 17 18 20 20 21 22 23 24
10 13 13 11 11 10 10 9 9 9 8 5 4 4 5 5 4 4 3 2 4 3 2 4 4 4 4 3 6 8 7 7 10 12 14 15 16 19 18 19 21 22 22
9 13 14 12 10 12 12 11 10 10 9 8 9 6 3 5 5 4 4 3 4 2 3 2 3 4 4 3 4 6 7 6 10 10 12 14 14 14 15 18 19 20 21
12 13 14 13 14 13 12 11 9 9 8 6 8 6 4 5 4 5 5 6 2 2 3 4 3 4 4 4 6 8 4 4 6 9 10 10 10 12 14 16 17 18 19
11 13 14 15 14 13 13 11 9 10 10 9 9 7 4 3 4 4 4 4 6 5 6 5 4 5 4 4 5 5 4 3 2 6 7 7 8 10 12 14 16 16 17
12 12 13 13 12 11 10 10 6 4 6 5 6 11 7 5 5 4 5 4 3 4 4 3 2 4 4 4 5 5 5 5 3 1 2 2 5 7 10 12 14 15 16
11 13 14 14 14 13 10 10 9 9 11 7 4 8 9 8 7 4 4 3 3 3 4 1 2 2 2 5 3 2 3 4 3 3 2 2 2 4 7 10 11 13 14
13 16 15 14 13 12 12 13 12 11 12 12 12 9 8 6 9 7 5 4 4 3 4 4 2 2 2 3 4 2 2 3 4 5 6 4 3 3 4 6 8 11 13
13 12 12 14 12 12 12 12 12 11 12 12 11 9 10 9 8 7 7 6 5 3 3 3 3 2 2 2 2 1 1 1 3 7 8 8 5 4 4 4 6 8 11
9 10 11 12 13 12 12 11 12 12 11 11 12 13 12 13 14 11 9 9 7 6 4 3 2 2 2 2 1 2 0 1 2 2 6 7 8 7 5 4 5 8 6
5 5 6 5 6 8 9 12 13 12 12 10 8 9 9 6 8 11 9 10 10 6 6 4 3 2 3 3 3 3 2 2 3 3 2 2 2 2 4 5 4 7 7
5 6 7 8 8 7 11 16 14 12 11 12 12 7 9 11 11 11 11 14 12 10 7 5 3 3 4 3 3 3 3 1 2 1 1 3 2 4 4 3 8 6 5
3 3 2 2 5 4 9 13 12 9 11 11 12 11 7 5 8 7 7 12 13 13 9 7 6 4 4 5 5 3 3 3 3 2 1 4 2 3 3 5 11 8 4
0 1 2 3 3 3 8 10 10 5 5 7 9 11 11 11 12 11 9 7 7 6 6 4 5 5 3 4 5 5 5 3 1 4 4 4 2 3 2 2 11 9 6
1 2 2 4 4 2 11 13 12 5 6 7 7 8 10 10 14 17 11 11 7 4 7 9 9 8 10 12 9 3 3 3 2 3 4 2 2 2 2 2 4 11 8
2 2 2 2 2 2 11 14 9 3 5 5 5 6 11 12 20 22 9 8 8 7 7 3 2 8 12 10 16 10 6 4 3 2 3 4 2 2 3 2 1 2 3
Wind_Direction
169 165 187 180 191 172 170 156 155 161 138 152 160 134 90 106 112 102 86 77 72 69 72 73 68 62 56 51 48 45 42 39 34 30 26 24 22 20 16 13 8 6 4
170 168 172 185 185 169 152 147 159 171 196 210 217 196 114 108 128 112 92 77 82 74 79 75 70 61 54 50 46 44 42 40 36 31 27 25 22 21 19 14 19 20 19
176 172 176 185 182 158 145 143 29 321 257 170 100 79 121 101 109 117 110 87 80 77 80 79 68 59 54 47 46 45 42 40 37 32 30 26 24 26 24 21 23 22 16
178 175 176 188 178 164 162 164 172 117 34 87 111 84 119 104 102 103 101 103 85 68 80 80 67 59 53 46 44 42 40 39 37 34 30 32 29 30 28 24 19 21 10
188 171 181 183 176 164 171 172 164 163 169 246 119 126 111 123 117 110 99 99 107 93 86 84 71 60 54 47 41 40 39 39 37 34 32 27 30 31 23 23 19 19 12
187 180 188 178 177 159 175 173 176 222 207 189 91 125 123 131 111 111 120 108 104 101 94 84 67 63 59 49 45 41 41 41 39 35 33 34 32 31 27 25 23 18 15
192 184 185 178 181 176 192 190 179 196 231 155 90 63 63 122 114 121 121 119 108 104 102 91 86 71 50 51 44 42 41 39 41 38 38 30 29 27 28 25 22 20 15
192 192 192 195 191 184 194 194 178 178 196 161 144 128 157 147 79 104 127 125 125 122 111 98 92 91 73 38 48 48 42 42 42 41 37 34 35 29 28 29 22 24 19
194 193 193 199 201 196 198 194 189 191 174 195 184 145 129 213 134 148 347 125 137 123 108 101 92 97 94 57 44 34 48 48 45 41 39 36 33 33 30 31 26 23 20
192 195 199 201 203 196 199 199 193 197 161 174 142 155 123 146 179 161 279 100 127 139 134 108 104 103 111 68 51 53 52 56 52 48 44 37 32 31 32 30 27 19 19
200 198 200 205 206 198 210 201 194 205 198 156 161 149 122 115 121 137 179 185 79 107 133 134 129 121 124 102 74 49 54 56 59 51 47 39 35 31 29 26 25 21 18
203 205 201 202 204 208 209 206 209 213 196 176 175 177 162 165 184 160 145 149 165 193 151 140 137 146 143 124 106 74 60 52 64 53 49 47 39 34 27 25 22 21 18
207 208 202 203 206 212 213 210 204 207 188 188 185 198 182 170 148 145 130 159 155 155 164 191 174 164 151 130 118 105 74 48 59 59 52 43 39 34 27 24 24 21 21
209 204 206 207 209 210 213 212 207 206 190 184 176 175 182 174 157 157 159 144 140 155 172 168 189 188 160 144 139 116 100 53 56 62 59 51 40 33 28 27 24 20 24
213 205 202 207 208 207 203 198 211 208 180 184 179 165 158 175 171 155 155 161 153 174 201 192 162 200 166 152 143 127 126 101 40 53 33 41 37 27 31 28 25 22 23
205 198 200 204 206 206 196 190 190 171 177 172 176 173 172 161 157 159 161 162 151 141 160 159 162 164 168 138 146 132 148 145 139 69 33 30 22 27 29 28 26 22 25
199 200 201 198 198 197 191 198 196 180 183 174 173 188 180 162 158 152 149 145 146 130 117 127 106 157 130 144 134 133 143 167 177 194 219 268 350 18 21 28 22 23 25
196 200 201 197 198 198 187 190 188 189 191 190 180 162 187 171 160 158 155 163 149 145 119 138 121 131 143 174 153 158 200 177 194 212 231 236 266 314 353 19 15 26 25
204 200 192 195 193 194 188 195 195 192 193 185 172 187 175 175 171 164 160 157 151 136 105 119 131 149 113 147 136 159 182 236 228 234 234 222 244 264 317 345 2 18 21
180 187 196 200 196 188 191 193 194 187 190 193 181 175 185 187 170 178 166 167 151 146 129 111 99 138 148 140 145 166 254 225 251 255 244 219 223 233 259 295 333 338 11
190 177 167 181 181 187 192 187 186 196 188 188 181 184 172 180 175 183 165 165 161 154 151 142 133 138 170 160 191 192 171 220 265 217 194 256 234 235 247 238 281 308 330
180 173 190 190 195 205 197 194 185 182 180 173 177 174 151 143 166 184 172 166 163 165 160 149 154 178 180 184 168 174 156 165 286 248 190 250 189 240 229 215 230 268 303
20 330 310 211 225 231 190 190 188 187 179 185 167 150 140 135 138 144 183 168 168 175 171 151 150 159 181 192 153 167 178 172 216 214 87 270 197 254 223 224 230 240 256
225 280 263 246 239 249 205 189 166 161 157 164 154 157 166 158 162 165 167 157 164 159 165 151 159 161 159 182 173 178 186 178 225 246 185 254 187 256 225 218 233 222 226
187 202 183 182 192 220 197 180 165 164 150 154 161 164 165 165 173 164 174 178 173 164 178 180 196 208 213 218 202 158 180 130 246 248 182 246 216 233 236 240 221 214 224
169 156 149 155 164 176 189 180 162 129 156 149 153 153 162 176 168 187 184 174 175 192 172 175 189 217 221 215 220 207 187 189 173 289 233 202 190 158 313 280 229 235 223